Regional Weather Roundup
Issued by NWS

Home | Current Version | Previous Version | Text Only | Print | Product List | Glossary On
Versions: 1 2 3 4 5 6 7 8 9 10 11 12 13 14 15 16 17 18 19 20 21 22 23 24 25 26 27 28 29 30 31 32 33 34 35 36 37 38 39 40 41 42 43 44 45 46 47 48 49 50
000
ASUS43 KOAX 010310
RWRNE

WEATHER ROUNDUP FOR NEBRASKA
NATIONAL WEATHER SERVICE OMAHA NE
1000 PM CDT FRI JUL 31 2015

NOTES: SATELLITE DATA IS BEING USED TO AUGMENT CLOUD COVER ABOVE
       12000 FEET.
       "FAIR" INDICATES FEW OR NO CLOUDS BELOW 12,000 FEET WITH NO
       SIGNIFICANT WEATHER AND/OR OBSTRUCTIONS TO VISIBILITY.

  * THESE STATIONS DO NOT REPORT WEATHER SUCH AS RAIN...SNOW OR FOG.

NEZ001>004-019>022-054>056-010400-
NEBRASKA PANHANDLE

CITY           SKY/WX    TMP DP  RH WIND       PRES   REMARKS
SCOTTSBLUFF    CLEAR     72  58  61 E7        30.14S
ALLIANCE       PTCLDY    70  57  63 CALM      30.14S
CHADRON        CLEAR     73  54  51 N3        30.09R
KIMBALL        CLEAR     68  51  54 SE6       30.19S
SIDNEY         CLEAR     72  50  45 SE9       30.18R
$$

NEZ057>060-069>072-079>082-010400-
SOUTHWEST NEBRASKA

CITY           SKY/WX    TMP DP  RH WIND       PRES   REMARKS
NORTH PLATTE   CLEAR     73  63  70 E20G25    30.12R
IMPERIAL       CLEAR     75  58  55 SE5       30.12R
LEXINGTON      PTCLDY    73  61  65 SE13G18   30.13R
MCCOOK         CLEAR     81  60  48 SE7       30.09R
OGALLALA       CLEAR     75  64  68 E5        30.12R
$$

NEZ005>010-023>029-035>040-094-010400-
NORTH CENTRAL NEBRASKA

CITY           SKY/WX    TMP DP  RH WIND       PRES   REMARKS
VALENTINE      CLEAR     77  62  59 NE9       30.10R
AINSWORTH      CLEAR     73  64  71 E7        30.12R
BROKEN BOW     CLEAR     74  62  66 S10       30.12R
O`NEILL        CLEAR     76  67  73 SW3       30.11R
ORD            PTCLDY    67  64  90 CALM      30.10R
THEDFORD       PTCLDY    76  62  60 SE10      30.13R
$$

NEZ041-046>049-061>064-073>077-083>087-010400-
SOUTH CENTRAL NEBRASKA

CITY           SKY/WX    TMP DP  RH WIND       PRES   REMARKS
GRAND ISLAND   MOCLDY    70  62  76 SW13      30.10R
AURORA         MOCLDY    67  64  93 CALM      30.08R
HASTINGS       PTCLDY    72  59  63 SE8       30.11F
HEBRON         CLOUDY    74  59  59 SW3       30.07S
HOLDREGE       PTCLDY    69  59  70 E8        30.13R
KEARNEY *      CLEAR     70  57  64 E6        30.13R
YORK           MOCLDY    64  63  94 SW5       30.08R
$$

NEZ011>018-030>034-042>045-010400-
NORTHEAST NEBRASKA

CITY           SKY/WX    TMP DP  RH WIND       PRES   REMARKS
NORFOLK        CLEAR     67  62  84 SW5       30.08R
ALBION         PTCLDY    67  62  82 CALM      30.08S
BLAIR          CLOUDY    76  71  83 N6        30.06S
COLUMBUS *     PTCLDY    63  55  77 CALM      30.08R
FREMONT        CLEAR     76  67  73 CALM      30.06S
TEKAMAH        CLEAR     71  68  90 S3        30.05R
WAYNE          CLEAR     69  66  91 CALM      30.08R
$$

NEZ050>053-065>068-078-088>093-010400-
SOUTHEAST NEBRASKA

CITY           SKY/WX    TMP DP  RH WIND       PRES   REMARKS
LINCOLN        PTCLDY    77  65  66 W3        30.07R
OMAHA EPPLEY   MOCLDY    78  74  87 N5        30.05R
BEATRICE       MOCLDY    76  67  73 CALM      30.07S
FALLS CITY     CLOUDY    82  73  74 S3        30.03F
NEBRASKA CITY  MOCLDY    71  61  71 SW9       30.04S
PLATTSMOUTH    PTCLDY    71  68  89 S5        30.06R
$$

NEZ044-045-051>053-067-010400-
OMAHA AREA

CITY           SKY/WX    TMP DP  RH WIND       PRES   REMARKS
OMAHA EPPLEY   MOCLDY    78  74  87 N5        30.05R
BLAIR          CLOUDY    76  71  83 N6        30.06S
FREMONT        CLEAR     76  67  73 CALM      30.06S
MILLARD        MOCLDY    79  68  69 CALM      30.05R
OFFUTT AFB     PTCLDY    75  66  72 VRB1      30.04R
PLATTSMOUTH    PTCLDY    71  68  89 S5        30.06R
WAHOO          FAIR      71  69  90 CALM      30.06R
$$


USA.gov is the U.S. government's official web portal to all federal, state and local government web resources and services.